COSMOS 2251 DEB, 34037

Orbit data source: Space-Track

COSMOS 2251 DEB, 34037 is space debris in LEO originally from a launch on Wed, 16 Jun 1993 UTC launched from the Plesetsk Missile And Space Complex (PKMTR). The debris from Iridium 33, an American commercial communications satellite, has been tracked extensively since its accidental collision with the defunct Russian satellite Cosmos 2251 in 2009. This event, occurring at high speed in low Earth orbit (LEO), generated thousands of pieces of space debris, significantly increasing the risk of further collisions. The Iridium 33 debris cloud has impacted space traffic management and orbital debris mitigation strategies, making it a subject of ongoing study in space situational awareness.

Loading next visibility...
Identifier
34037, 1993-036HY
Orbit
LEO
Country
Flag of CISCIS
Related business
Manufacturer
Unknown
Mission
Spacecraft
Bus & Motor
Unknown
Mass
Unknown
Launch date (UTC)
1993-06-16 (33 years ago)
Launch vehicle
Unknown
Launch site
Plesetsk Missile And Space Complex (PKMTR)
Object type
Payload
Rocket body
Debris
Shape & HBR
Unknown shape, 0.2 m
Radar Cross Section
Medium (>0.1 m² and <1 m²)

Expand to show TLE details & history
Last TLE update: 9 hours ago

TLE from 9 hours ago
0 COSMOS 2251 DEB
1 34037U 93036HY  26235.90687416  .00000683  00000-0  24318-3 0  9995
2 34037  74.0512 304.9590 0055150 292.8052  66.7280 14.35322446913637
Epoch: 2026-08-23T21:45Z
TLE epoch observation values (Epoch: 2026-08-23T21:45:53.927Z)
Latitude
-0.00004°
Longitude
6.28809°
Altitude
761.204 km
Speed
7.482 km/s
True Right ascension
20h 19m 50s
True Declination
0° 00' 00"
Sunlit
Object was in full shadow at epoch
Visualization orbit readout
Latitude
Unknown
Longitude
Unknown
Altitude
Unknown
Speed
Unknown
Apparent Right ascension
Unknown
Apparent Declination
Unknown
Sunlit
N/A
Visualization observer readout
Local Sidereal Time
21:34:33
Azimuth
Unknown
Elevation
Unknown
Doppler factor
Unknown
Orbital elements
Apogee altitude
811.049 km
Perigee altitude
732.188 km
Semi-major axis
7,149.755 km
Eccentricity
0.00552
Inclination
74.0512°
RAAN
304.959°
Arg. of periapsis
292.8052°
True anomaly
67.31013°
Mean anomaly
66.728°
Eccentric anomaly
67.01891°
Mean motion
3.5901 °/min
Orbital period
100.28 mins
BSTAR
0.00024318

Documentation

Showing up to 5 results
|